Location: Newark
(28.4500°N, 16.2500°W)
Time: 00:11:36
(UTC+00:00)

XW-2D - Visible Passes

Search period start: 24 October 2019 00:00
Search period end: 03 November 2019 00:00
Orbit: 507 x 529 km, 97.5° (Epoch: 23 October)

Date Brightness Start Highest point End Pass type
(mag) Time Alt. Az. Time Alt. Az. Time Alt. Az.
24 Oct ? 06:00:39 10° ENE 06:02:28 13° E 06:04:18 10° SE visible
25 Oct ? 19:29:17 10° WSW 19:30:18 11° W 19:31:20 10° WNW visible
26 Oct ? 19:13:34 10° SW 19:16:06 17° W 19:18:38 10° NW visible
27 Oct ? 18:58:43 10° SSW 19:01:56 27° W 19:05:07 10° NW visible
28 Oct ? 06:36:31 10° NNE 06:40:07 44° E 06:43:41 10° S visible
28 Oct ? 18:44:11 10° S 18:47:45 42° W 18:51:20 10° NNW visible
29 Oct ? 06:22:42 10° NE 06:25:57 28° E 06:29:11 10° SSE visible
30 Oct ? 06:09:10 10° NE 06:11:46 18° E 06:14:21 10° SE visible
31 Oct ? 05:56:19 10° ENE 05:57:33 11° E 05:58:48 10° ESE visible
01 Nov ? 19:23:40 10° WSW 19:25:22 13° W 19:27:05 10° WNW visible
02 Nov ? 19:08:24 10° SW 19:11:10 20° W 19:13:57 10° NW visible
